Date String (YYYY-MM-DD hh:mm:ss) UTC,Instrument flags,Ambient pressure (hPa),Sample flow (lpm),Bypass flow (lpm),Sample temperature (°C),Ambient temperature (°C),ASC tube jacket temperature (°C),LED temperature (°C),Box temperature (°C),Sample RH (%),Span deviation,Mass concentration (μg/m³),Mass concentration (μg/m³),Mass concentration (μg/m³)
DateTimeUTC,F1_M11,P_M11,Q1_M11,Q2_M11,T1_M11,T2_M11,T3_M11,T4_M11,T5_M11,U1_M11,ZSPAN_M11,X0_M11,X2_M11,X1_M11
2022-04-08 00:00:00,,0830.9,4.99,0.00,26.3,25.6,00.0,35.2,28.1,03.4,0000.0,0002.39,0001.36,0000.85
2022-04-08 00:01:00,,0830.9,5.00,0.00,26.3,25.5,00.0,35.2,28.1,03.5,0000.0,0002.34,0001.31,0000.84
2022-04-08 00:02:00,,0830.9,5.00,0.00,26.3,25.6,00.0,35.2,28.1,03.5,0000.0,0002.26,0001.29,0000.84
2022-04-08 00:03:00,,0830.8,5.00,0.00,26.3,25.6,00.0,35.2,28.1,03.5,0000.0,0002.17,0001.25,0000.83
2022-04-08 00:04:00,,0830.9,4.99,0.00,26.3,25.5,00.0,35.2,28.1,03.5,0000.0,0002.05,0001.21,0000.84
2022-04-08 00:05:00,,0830.9,5.01,0.00,26.3,25.5,00.0,35.2,28.1,03.5,0000.0,0001.95,0001.21,0000.85
2022-04-08 00:06:00,,0830.9,5.01,0.00,26.3,25.5,00.0,35.2,28.0,03.4,0000.0,0002.02,0001.24,0000.85
2022-04-08 00:07:00,,0830.9,5.00,0.00,26.3,25.5,00.0,35.2,28.1,03.5,0000.0,0002.92,0001.23,0000.85
2022-04-08 00:08:00,,0831.0,5.00,0.00,26.3,25.5,00.0,35.2,28.1,03.7,0000.0,0003.18,0001.31,0000.87
2022-04-08 00:09:00,,0830.9,5.00,0.00,26.3,25.6,00.0,35.2,28.1,03.7,0000.0,0003.38,0001.40,0000.88
2022-04-08 00:10:00,,0831.0,5.00,0.00,26.3,25.6,00.0,35.2,28.1,03.6,0000.0,0003.41,0001.39,0000.88
2022-04-08 00:11:00,,0831.0,4.99,0.00,26.3,25.5,00.0,35.2,28.1,03.4,0000.0,0003.50,0001.42,0000.88
2022-04-08 00:12:00,,0830.9,4.99,0.00,26.3,25.6,00.0,35.2,28.2,03.4,0000.0,0003.54,0001.46,0000.89
2022-04-08 00:13:00,,0830.8,5.01,0.00,26.3,25.6,00.0,35.2,28.1,03.4,0000.0,0003.67,0001.50,0000.88
2022-04-08 00:14:00,,0830.8,4.99,0.00,26.3,25.6,00.0,35.2,28.1,03.3,0000.0,0003.95,0001.60,0000.88
2022-04-08 00:15:00,,0830.9,5.00,0.00,26.3,25.5,00.0,35.2,28.1,03.4,0000.0,0004.11,0001.65,0000.88
2022-04-08 00:16:00,,0830.9,4.99,0.00,26.4,25.6,00.0,35.3,28.2,03.3,0000.0,0005.72,0001.67,0000.87
2022-04-08 00:17:00,,0831.0,5.00,0.00,26.4,25.6,00.0,35.3,28.2,03.4,0000.0,0006.15,0001.64,0000.88
2022-04-08 00:18:00,,0831.0,5.01,0.00,26.4,25.6,00.0,35.3,28.1,03.5,0000.0,0006.37,0001.62,0000.87
2022-04-08 00:19:00,,0831.0,5.01,0.00,26.4,25.6,00.0,35.3,28.2,03.4,0000.0,0006.88,0001.56,0000.86
2022-04-08 00:20:00,,0830.9,5.00,0.00,26.4,25.6,00.0,35.3,28.2,03.4,0000.0,0006.74,0001.48,0000.84
2022-04-08 00:21:00,,0830.9,5.00,0.00,26.4,25.6,00.0,35.3,28.2,03.3,0000.0,0006.70,0001.46,0000.84
2022-04-08 00:22:00,,0830.9,5.00,0.00,26.4,25.6,00.0,35.3,28.1,03.3,0000.0,0006.68,0001.45,0000.85
2022-04-08 00:23:00,,0831.0,5.00,0.00,26.4,25.6,00.0,35.3,28.1,03.4,0000.0,0006.72,0001.46,0000.86
2022-04-08 00:24:00,,0830.9,4.99,0.00,26.4,25.6,00.0,35.3,28.1,03.3,0000.0,0006.73,0001.46,0000.86
2022-04-08 00:25:00,,0831.0,5.00,0.00,26.4,25.6,00.0,35.3,28.1,03.2,0000.0,0006.69,0001.43,0000.85
2022-04-08 00:26:00,,0830.9,5.00,0.00,26.3,25.5,00.0,35.3,28.1,03.0,0000.0,0006.53,0001.37,0000.84
2022-04-08 00:27:00,,0831.0,5.00,0.00,26.3,25.5,00.0,35.3,28.1,03.1,0000.0,0004.99,0001.29,0000.83
2022-04-08 00:28:00,,0831.0,5.01,0.00,26.3,25.5,00.0,35.3,28.1,03.3,0000.0,0004.46,0001.30,0000.83
2022-04-08 00:29:00,,0831.0,4.98,0.00,26.3,25.5,00.0,35.3,28.1,03.3,0000.0,0003.31,0001.29,0000.83
2022-04-08 00:30:00,,,,,,,,,,,,0002.30,0001.28,0000.84
2022-04-08 00:30:15,,0831.0,5.00,0.00,26.3,25.5,00.0,35.3,28.1,03.4,0000.0,0002.30,0001.28,0000.84
2022-04-08 00:31:00,,0830.9,4.99,0.00,26.3,25.5,00.0,35.3,28.1,03.4,0000.0,0002.41,0001.32,0000.84
2022-04-08 00:32:00,,0830.9,5.00,0.00,26.3,25.5,00.0,35.3,28.1,03.4,0000.0,0002.51,0001.36,0000.85
2022-04-08 00:33:00,,0831.0,5.00,0.00,26.3,25.5,00.0,35.3,28.1,03.2,0000.0,0002.59,0001.40,0000.84
2022-04-08 00:34:00,,0831.0,5.00,0.00,26.3,25.5,00.0,35.3,28.1,03.2,0000.0,0002.54,0001.38,0000.84
2022-04-08 00:35:00,,0831.0,4.99,0.00,26.3,25.5,00.0,35.3,28.1,03.2,0000.0,0002.46,0001.34,0000.82
2022-04-08 00:36:00,,0831.1,4.99,0.00,26.3,25.5,00.0,35.3,28.1,03.2,0000.0,0002.33,0001.31,0000.82
2022-04-08 00:37:00,,0831.2,4.99,0.00,26.3,25.5,00.0,35.3,28.1,03.2,0000.0,0002.32,0001.30,0000.82
2022-04-08 00:38:00,,0831.1,5.00,0.00,26.3,25.5,00.0,35.3,28.1,03.2,0000.0,0003.18,0001.34,0000.82
2022-04-08 00:39:00,,0831.0,5.01,0.00,26.3,25.5,00.0,35.3,28.1,03.2,0000.0,0004.15,0001.39,0000.82
2022-04-08 00:40:00,,0831.1,5.00,0.00,26.4,25.5,00.0,35.3,28.1,03.3,0000.0,0004.12,0001.37,0000.81
2022-04-08 00:41:00,,0831.2,4.99,0.00,26.3,25.5,00.0,35.3,28.1,03.3,0000.0,0004.55,0001.39,0000.81
2022-04-08 00:42:00,,0831.2,5.00,0.00,26.4,25.5,00.0,35.3,28.1,03.3,0000.0,0005.52,0001.38,0000.80
2022-04-08 00:43:00,,0831.2,4.99,0.00,26.4,25.5,00.0,35.3,28.1,03.4,0000.0,0005.43,0001.35,0000.80
2022-04-08 00:44:00,,0831.1,5.01,0.00,26.4,25.6,00.0,35.3,28.1,03.4,0000.0,0005.43,0001.31,0000.80
2022-04-08 00:45:00,,0831.1,4.99,0.00,26.4,25.6,00.0,35.3,28.1,03.3,0000.0,0005.43,0001.30,0000.79
2022-04-08 00:46:00,,0831.2,5.01,0.00,26.4,25.6,00.0,35.3,28.1,03.3,0000.0,0005.42,0001.29,0000.79
2022-04-08 00:47:00,,0831.1,5.01,0.00,26.4,25.6,00.0,35.3,28.2,03.2,0000.0,0005.35,0001.26,0000.79
2022-04-08 00:48:00,,0831.2,5.01,0.00,26.4,25.6,00.0,35.3,28.2,03.2,0000.0,0005.34,0001.25,0000.80
2022-04-08 00:49:00,,0831.2,5.00,0.00,26.4,25.6,00.0,35.3,28.2,03.2,0000.0,0004.70,0001.26,0000.81
2022-04-08 00:50:00,,0831.1,4.99,0.00,26.4,25.6,00.0,35.3,28.2,03.3,0000.0,0003.85,0001.26,0000.82
2022-04-08 00:51:00,,0831.2,5.00,0.00,26.4,25.6,00.0,35.3,28.2,03.3,0000.0,0003.88,0001.27,0000.83
2022-04-08 00:52:00,,0831.2,5.00,0.00,26.4,25.6,00.0,35.3,28.2,03.3,0000.0,0003.83,0001.29,0000.84
2022-04-08 00:53:00,,0831.2,5.00,0.00,26.4,25.6,00.0,35.3,28.2,03.3,0000.0,0003.51,0001.26,0000.83
2022-04-08 00:54:00,,0831.2,5.00,0.00,26.4,25.6,00.0,35.3,28.2,03.3,0000.0,0003.74,0001.25,0000.83
2022-04-08 00:55:00,,0831.2,5.01,0.00,26.4,25.6,00.0,35.3,28.2,03.3,0000.0,0003.68,0001.25,0000.83
2022-04-08 00:56:00,,0831.2,4.99,0.00,26.4,25.6,00.0,35.3,28.2,03.3,0000.0,0003.74,0001.25,0000.83
2022-04-08 00:57:00,,0831.3,5.00,0.00,26.4,25.6,00.0,35.3,28.2,03.4,0000.0,0003.77,0001.28,0000.83
2022-04-08 00:58:00,,0831.3,5.00,0.00,26.4,25.6,00.0,35.3,28.2,03.4,0000.0,0003.80,0001.29,0000.83
2022-04-08 00:59:00,,0831.3,5.00,0.00,26.4,25.6,00.0,35.3,28.2,03.3,0000.0,0003.90,0001.33,0000.83
